{"data":{"norad_id":37748,"intl_designator":"2011-035A","name":"SES-3","alt_names":[],"object_type":"PAYLOAD","status":"ACTIVE","operator":null,"country":"US","launch_date":"2011-07-15","launch_site_code":"TYMSC","launch_vehicle":null,"mission":null,"orbit_class":"UNKNOWN","rcs_meters":19.9526,"size_class":null,"mass_kg":null,"dimensions":null,"purposes":["comms"],"wikipedia_slug":null,"has_3d_model":false,"image_url":null,"decayed_at":null,"tle_current":{"epoch":"2026-09-20T03:57:35.789184Z","epoch_age_seconds":43422,"freshness":"FRESH","line1":"1 37748U 11035A   26263.16499756 -.00000106  00000+0  00000+0 0  9991","line2":"2 37748   1.5648  81.8705 0002449 109.5050 124.1088  1.00272282 55540","mean_motion":1.00272282,"eccentricity":0.0002449,"inclination_deg":1.5648,"raan_deg":81.8705,"arg_perigee_deg":109.505,"mean_anomaly_deg":124.1088,"bstar":0,"rev_number":5554,"period_min":1436.0897860089,"perigee_km":35776.129525888,"apogee_km":35796.781743361,"semimajor_km":42164.592634625,"source":"CELESTRAK","updated_at":"2026-09-20T09:00:35.639450Z"}}}